Weather in Nikolaevskiy

Russia / Republic of Buryatia     51°39′05″N   107°48′09″E
temp.,
°C
wind,
m/s
gust,
m/s
humid.,
%
clouds,
%
prec.,
mm/h
press.,
hPa
HPBL,
m
25 february, thu
thu2523:00−18sse119029 0.0 102820
02:00−19e119444 0.0 102720
05:00−19ene119695 0.0 102521
08:00−21ene119897 0.0 102420
11:00−13nnw118146 0.0 1024292
14:00−8wnw127767 0.0 1020445
17:00−8nne1185100 0.0 1018184
20:00−11e2295100 0.0 101780
26 february, fri
fri2623:00−11ene2495100 0.1 1013150
02:00−13ene2296100 0.1 101358
05:00−14nnw1296100 0.0 101521
08:00−14wnw1295100 0.0 101728
11:00−10nw1581100 0.0 1017564
14:00−8n2376100 0.1 1015728
17:00−10nnw2593100 0.9 1016523
20:00−12nw2695100 1.4 1018360
27 february, sat
sat2723:00−14wnw2890100 0.1 1021415
02:00−16wnw61289100 0.3 1024965
05:00−18wnw51389100 0.1 1028630
08:00−22wsw379172 0.1 1033188
11:00−17wnw47748 0.0 1035862
14:00−16nw58644 0.0 10341510
17:00−17nw357183 0.0 10351134
20:00−23s118759 0.0 103820
28 february, sun
sun2823:00−24ssw12878 0.0 104020
02:00−26ssw11894 0.0 104120
05:00−27ese01892 0.0 104219
08:00−28ese11871 0.0 104319
11:00−18n117328 0.0 1041287
14:00−15w236964 0.0 1039778
17:00−15wsw247852 0.0 1039617
20:00−21ssw229247 0.0 104120
1 march, mon
mon123:00−22ssw129285 0.0 104220
02:00−24wsw119392 0.0 104220
05:00−23wsw0095100 0.0 104120
08:00−24sw119497 0.0 104220
11:00−17wsw128120 0.0 1039362
14:00−13wsw237033 0.0 1036681
17:00−13w23753 0.0 1033596
20:00−20s12891 0.0 103420